Time,TemperatureF,DewpointF,PressureIn,WindDirection,WindDirectionDegrees,WindSpeedMPH,WindSpeedGustMPH,Humidity,HourlyPrecipIn,Conditions,Clouds,dailyrainin,SoftwareType,DateUTC
2013-06-20 00:33:00,58.0,55.0,29.53,West,269,29.0,-999.0,91,-99.99,,,-99.99,,2013-06-20 06:33:00,
2013-06-20 00:43:00,58.0,55.0,29.57,WNW,286,18.0,-999.0,91,-99.99,,,-99.99,,2013-06-20 06:43:00,
2013-06-20 00:53:00,59.0,56.0,29.58,West,279,19.0,-999.0,89,-99.99,,,-99.99,,2013-06-20 06:53:00,
2013-06-20 01:01:00,59.0,56.0,29.58,West,279,19.0,-999.0,89,-99.99,,,-99.99,,2013-06-20 07:01:00,
2013-06-20 01:12:00,59.0,56.0,29.57,WNW,297,18.0,-999.0,89,-99.99,,,-99.99,,2013-06-20 07:12:00,
2013-06-20 01:22:00,58.0,55.0,29.51,WNW,299,21.0,-999.0,91,-99.99,,,-99.99,,2013-06-20 07:22:00,
2013-06-20 01:34:00,58.0,55.0,29.51,WNW,299,21.0,-999.0,91,-99.99,,,-99.99,,2013-06-20 07:34:00,
2013-06-20 01:43:00,59.0,55.0,29.52,WNW,298,23.0,-999.0,88,-99.99,,,-99.99,,2013-06-20 07:43:00,
2013-06-20 01:52:00,59.0,55.0,29.41,WNW,302,32.0,-999.0,87,-99.99,,,-99.99,,2013-06-20 07:52:00,
2013-06-20 02:02:00,59.0,55.0,29.41,WNW,302,32.0,-999.0,87,-99.99,,,-99.99,,2013-06-20 08:02:00,
2013-06-20 02:11:00,58.0,54.0,29.35,NW,315,39.0,-999.0,88,-99.99,,,-99.99,,2013-06-20 08:11:00,
2013-06-20 02:22:00,59.0,54.0,29.40,NW,325,40.0,-999.0,85,-99.99,,,-99.99,,2013-06-20 08:22:00,
2013-06-20 02:34:00,59.0,54.0,29.40,NW,325,40.0,-999.0,85,-99.99,,,-99.99,,2013-06-20 08:34:00,
2013-06-20 02:43:00,59.0,54.0,29.44,NW,304,29.0,-999.0,84,-99.99,,,-99.99,,2013-06-20 08:43:00,
2013-06-20 02:52:00,59.0,55.0,29.53,SSE,160,11.0,-999.0,86,-99.99,,,-99.99,,2013-06-20 08:52:00,
2013-06-20 03:02:00,59.0,55.0,29.53,SSE,160,11.0,-999.0,86,-99.99,,,-99.99,,2013-06-20 09:02:00,
2013-06-20 03:11:00,59.0,55.0,29.55,East,100,8.0,-999.0,86,-99.99,,,-99.99,,2013-06-20 09:11:00,
2013-06-20 03:22:00,59.0,55.0,29.57,SE,138,4.0,-999.0,87,-99.99,,,-99.99,,2013-06-20 09:22:00,
2013-06-20 03:33:00,59.0,55.0,29.57,SE,138,4.0,-999.0,87,-99.99,,,-99.99,,2013-06-20 09:33:00,
2013-06-20 03:42:00,58.0,55.0,29.57,South,169,6.0,-999.0,89,-99.99,,,-99.99,,2013-06-20 09:42:00,
2013-06-20 03:52:00,58.0,55.0,29.57,South,169,6.0,-999.0,89,-99.99,,,-99.99,,2013-06-20 09:52:00,
2013-06-20 04:01:00,58.0,55.0,29.56,SSE,168,6.0,-999.0,89,-99.99,,,-99.99,,2013-06-20 10:01:00,
2013-06-20 04:11:00,58.0,55.0,29.55,South,182,6.0,-999.0,90,-99.99,,,-99.99,,2013-06-20 10:11:00,
2013-06-20 04:22:00,58.0,55.0,29.55,South,182,6.0,-999.0,90,-99.99,,,-99.99,,2013-06-20 10:22:00,
2013-06-20 04:33:00,58.0,55.0,29.57,SSE,168,3.0,-999.0,90,-99.99,,,-99.99,,2013-06-20 10:33:00,
2013-06-20 04:43:00,58.0,55.0,29.57,SSE,163,4.0,-999.0,90,-99.99,,,-99.99,,2013-06-20 10:43:00,
2013-06-20 04:53:00,58.0,55.0,29.58,SSE,166,2.0,-999.0,90,-99.99,,,-99.99,,2013-06-20 10:53:00,
2013-06-20 05:02:00,58.0,55.0,29.58,SSE,166,2.0,-999.0,90,-99.99,,,-99.99,,2013-06-20 11:02:00,
2013-06-20 05:11:00,58.0,55.0,29.59,SSE,150,1.0,-999.0,90,-99.99,,,-99.99,,2013-06-20 11:11:00,
2013-06-20 05:22:00,58.0,55.0,29.59,SSE,150,1.0,-999.0,90,-99.99,,,-99.99,,2013-06-20 11:22:00,
2013-06-20 05:34:00,57.0,54.0,29.60,NE,42,1.0,-999.0,90,-99.99,,,-99.99,,2013-06-20 11:34:00,
2013-06-20 05:42:00,56.0,53.0,29.61,NE,41,5.0,-999.0,91,-99.99,,,-99.99,,2013-06-20 11:42:00,
2013-06-20 05:53:00,56.0,53.0,29.61,NE,41,5.0,-999.0,91,-99.99,,,-99.99,,2013-06-20 11:53:00,
2013-06-20 06:02:00,56.0,54.0,29.61,NNE,14,7.0,-999.0,93,-99.99,,,-99.99,,2013-06-20 12:02:00,
2013-06-20 06:11:00,56.0,54.0,29.62,NNE,12,3.0,-999.0,93,-99.99,,,-99.99,,2013-06-20 12:11:00,
2013-06-20 06:22:00,56.0,54.0,29.62,NNE,12,3.0,-999.0,93,-99.99,,,-99.99,,2013-06-20 12:22:00,
2013-06-20 06:34:00,57.0,55.0,29.63,NE,36,2.0,-999.0,92,-99.99,,,-99.99,,2013-06-20 12:34:00,
2013-06-20 06:43:00,57.0,55.0,29.63,NE,42,2.0,-999.0,93,-99.99,,,-99.99,,2013-06-20 12:43:00,
2013-06-20 06:53:00,57.0,55.0,29.63,NE,42,2.0,-999.0,93,-99.99,,,-99.99,,2013-06-20 12:53:00,
2013-06-20 07:02:00,58.0,55.0,29.63,NNE,16,5.0,-999.0,91,-99.99,,,-99.99,,2013-06-20 13:02:00,
2013-06-20 07:11:00,59.0,56.0,29.64,NE,53,5.0,-999.0,90,-99.99,,,-99.99,,2013-06-20 13:11:00,
2013-06-20 07:22:00,59.0,56.0,29.64,NE,53,5.0,-999.0,90,-99.99,,,-99.99,,2013-06-20 13:22:00,
2013-06-20 07:33:00,59.0,56.0,29.65,NE,55,1.0,-999.0,90,-99.99,,,-99.99,,2013-06-20 13:33:00,
2013-06-20 07:42:00,59.0,56.0,29.66,ESE,105,1.0,-999.0,90,-99.99,,,-99.99,,2013-06-20 13:42:00,
2013-06-20 07:53:00,59.0,56.0,29.66,ESE,105,1.0,-999.0,90,-99.99,,,-99.99,,2013-06-20 13:53:00,
2013-06-20 08:01:00,59.0,56.0,29.67,ESE,105,1.0,-999.0,90,-99.99,,,-99.99,,2013-06-20 14:01:00,
2013-06-20 08:11:00,60.0,57.0,29.68,ESE,105,0.0,-999.0,89,-99.99,,,-99.99,,2013-06-20 14:11:00,
2013-06-20 08:22:00,60.0,57.0,29.68,ESE,105,0.0,-999.0,89,-99.99,,,-99.99,,2013-06-20 14:22:00,
2013-06-20 08:32:00,61.0,57.0,29.68,East,90,2.0,-999.0,87,-99.99,,,-99.99,,2013-06-20 14:32:00,
2013-06-20 08:42:00,61.0,57.0,29.70,ENE,74,4.0,-999.0,86,-99.99,,,-99.99,,2013-06-20 14:42:00,
2013-06-20 08:53:00,61.0,57.0,29.70,ENE,74,4.0,-999.0,86,-99.99,,,-99.99,,2013-06-20 14:53:00,
2013-06-20 09:02:00,62.0,57.0,29.70,East,98,4.0,-999.0,84,-99.99,,,-99.99,,2013-06-20 15:02:00,
2013-06-20 09:11:00,63.0,57.0,29.70,East,82,4.0,-999.0,82,-99.99,,,-99.99,,2013-06-20 15:11:00,
2013-06-20 09:22:00,63.0,57.0,29.70,East,82,4.0,-999.0,82,-99.99,,,-99.99,,2013-06-20 15:22:00,
2013-06-20 09:33:00,64.0,58.0,29.70,ENE,73,4.0,-999.0,81,-99.99,,,-99.99,,2013-06-20 15:33:00,
2013-06-20 09:43:00,64.0,58.0,29.70,ESE,110,5.0,-999.0,80,-99.99,,,-99.99,,2013-06-20 15:43:00,
2013-06-20 09:52:00,64.0,58.0,29.70,ESE,110,5.0,-999.0,80,-99.99,,,-99.99,,2013-06-20 15:52:00,
2013-06-20 10:01:00,65.0,57.0,29.70,East,98,6.0,-999.0,76,-99.99,,,-99.99,,2013-06-20 16:01:00,
2013-06-20 10:11:00,65.0,58.0,29.70,ENE,74,6.0,-999.0,78,-99.99,,,-99.99,,2013-06-20 16:11:00,
2013-06-20 10:22:00,65.0,58.0,29.70,ENE,74,6.0,-999.0,78,-99.99,,,-99.99,,2013-06-20 16:22:00,
2013-06-20 10:33:00,65.0,57.0,29.71,ESE,121,5.0,-999.0,76,-99.99,,,-99.99,,2013-06-20 16:33:00,
2013-06-20 10:42:00,67.0,57.0,29.71,ESE,103,4.0,-999.0,71,-99.99,,,-99.99,,2013-06-20 16:42:00,
2013-06-20 10:52:00,67.0,57.0,29.71,ESE,103,4.0,-999.0,71,-99.99,,,-99.99,,2013-06-20 16:52:00,
2013-06-20 11:01:00,67.0,57.0,29.70,SSE,158,4.0,-999.0,71,-99.99,,,-99.99,,2013-06-20 17:01:00,
2013-06-20 11:11:00,67.0,57.0,29.71,ESE,121,4.0,-999.0,71,-99.99,,,-99.99,,2013-06-20 17:11:00,
2013-06-20 11:22:00,67.0,57.0,29.71,ESE,121,4.0,-999.0,71,-99.99,,,-99.99,,2013-06-20 17:22:00,
2013-06-20 11:32:00,68.0,57.0,29.70,ESE,103,3.0,-999.0,67,-99.99,,,-99.99,,2013-06-20 17:32:00,
2013-06-20 11:43:00,68.0,57.0,29.70,East,100,5.0,-999.0,67,-99.99,,,-99.99,,2013-06-20 17:43:00,
2013-06-20 11:52:00,68.0,57.0,29.70,East,100,5.0,-999.0,67,-99.99,,,-99.99,,2013-06-20 17:52:00,
2013-06-20 12:01:00,68.0,57.0,29.70,East,100,5.0,-999.0,67,-99.99,,,-99.99,,2013-06-20 18:01:00,
2013-06-20 12:11:00,69.0,54.0,29.71,SSE,157,7.0,-999.0,59,-99.99,,,-99.99,,2013-06-20 18:11:00,
2013-06-20 12:22:00,69.0,54.0,29.71,SSE,157,7.0,-999.0,59,-99.99,,,-99.99,,2013-06-20 18:22:00,
2013-06-20 12:33:00,70.0,54.0,29.71,ESE,114,5.0,-999.0,57,-99.99,,,-99.99,,2013-06-20 18:33:00,
2013-06-20 12:43:00,70.0,52.0,29.70,ESE,117,3.0,-999.0,53,-99.99,,,-99.99,,2013-06-20 18:43:00,
2013-06-20 12:53:00,70.0,52.0,29.70,ESE,117,3.0,-999.0,53,-99.99,,,-99.99,,2013-06-20 18:53:00,
2013-06-20 13:01:00,70.0,52.0,29.71,SE,140,7.0,-999.0,53,-99.99,,,-99.99,,2013-06-20 19:01:00,
2013-06-20 13:11:00,71.0,50.0,29.71,SSE,168,5.0,-999.0,48,-99.99,,,-99.99,,2013-06-20 19:11:00,
2013-06-20 13:22:00,71.0,50.0,29.71,SSE,168,5.0,-999.0,48,-99.99,,,-99.99,,2013-06-20 19:22:00,
2013-06-20 13:34:00,72.0,48.0,29.71,South,178,3.0,-999.0,43,-99.99,,,-99.99,,2013-06-20 19:34:00,
2013-06-20 13:43:00,71.0,49.0,29.71,SSE,154,7.0,-999.0,45,-99.99,,,-99.99,,2013-06-20 19:43:00,
2013-06-20 13:52:00,71.0,49.0,29.71,SSE,154,7.0,-999.0,45,-99.99,,,-99.99,,2013-06-20 19:52:00,
2013-06-20 14:02:00,72.0,46.0,29.72,South,176,7.0,-999.0,40,-99.99,,,-99.99,,2013-06-20 20:02:00,
2013-06-20 14:11:00,72.0,48.0,29.72,SSW,207,5.0,-999.0,42,-99.99,,,-99.99,,2013-06-20 20:11:00,
2013-06-20 14:22:00,72.0,48.0,29.72,SSW,207,5.0,-999.0,42,-99.99,,,-99.99,,2013-06-20 20:22:00,
2013-06-20 14:33:00,72.0,48.0,29.72,South,171,7.0,-999.0,42,-99.99,,,-99.99,,2013-06-20 20:33:00,
2013-06-20 14:42:00,72.0,48.0,29.72,SE,142,4.0,-999.0,42,-99.99,,,-99.99,,2013-06-20 20:42:00,
2013-06-20 14:52:00,72.0,48.0,29.72,SE,142,4.0,-999.0,42,-99.99,,,-99.99,,2013-06-20 20:52:00,
2013-06-20 15:01:00,73.0,49.0,29.73,ESE,123,3.0,-999.0,42,-99.99,,,-99.99,,2013-06-20 21:01:00,
2013-06-20 18:11:00,72.0,43.0,29.75,South,190,12.0,-999.0,35,-99.99,,,-99.99,,2013-06-21 00:11:00,